Miscellaneous Hydrologic Data Report
Issued by NWS (Baltimore/Washington) Sterling, VA
1 of 27 available versions  First Miscellaneous Hydrologic Data Report Previous Miscellaneous Hydrologic Data Report  Print this page Close this Window


000
ASUS41 KLWX 291110
RWRLWX

REGIONAL WEATHER ROUNDUP
NATIONAL WEATHER SERVICE BALTIMORE MD/WASHINGTON DC
700 AM EDT FRI JUL 29 2016

Note: "FAIR" indicates few or no clouds below 12,000 feet
with no significant weather and/or obstructions to visibility.
 TC=TEMPERATURE CELSIUS

 * =Non NWS site. Station does not report precipitation (e.g. rain,
    snow, etc.), thunder, or fog.

DCZ001-MDZ009-015-VAZ040>042-051-053>054-291200-
WASHINGTON METRO

CITY           SKY/WX    TMP DP  RH WIND       PRES   REMARKS
WASHINGTON NAT MOCLDY    75  71  87 N13       29.85R
DULLES         MOCLDY    72  70  93 NW9       29.86R
ANDREWS AFB    CLOUDY    72  71  95 N7        29.84R
FT BELVOIR     FAIR      74  71  90 VRB6      29.85R
QUANTICO       CLOUDY    75  71  87 N8        29.86R
LEESBURG*      CLOUDY    72  72 100 NW12      29.89R
MANASSAS*      MOCLDY    72  72 100 N8        29.85R
GAITHERSBURG*  CLOUDY    72  68  88 CALM      29.91R

$$

MDZ006>007-011-014-291200-
BALTIMORE METRO

CITY           SKY/WX    TMP DP  RH WIND       PRES   REMARKS
BWI AIRPORT    CLOUDY    72  69  90 N5        29.85R
MD SCIENCE CTR   N/A     73  69  87 MISG      29.85R
MARTIN STATE   DRIZZLE   72  72 100 N8        29.86R
ANNAPOLIS      CLOUDY    75  73  93 N8        29.83R
FORT MEADE*    CLOUDY    72  68  88 CALM      29.87R

$$

MDZ012-015-019>023-291200-
MARYLAND EASTERN SHORE

CITY           SKY/WX    TMP DP  RH WIND       PRES   REMARKS
OCEAN CITY       N/A    N/A N/A N/A MISG      29.79S
SALISBURY      NOT AVBL
BAY BRIDGE AP* CLOUDY    75  72  88 N13G18    29.82R
CAMBRIDGE*     CLOUDY    72  72 100 CALM      29.79S
EASTON*        CLOUDY    75  75 100 CALM      29.85R FOG

$$

MDZ017>025-291200-
SOUTHERN MARYLAND

CITY           SKY/WX    TMP DP  RH WIND       PRES   REMARKS
PATUXENT RIVER MOCLDY    76  73  91 NW5       29.81R
ST INIGOES     CLOUDY    77  75  93 NW6       29.80R
LEONARDTOWN*   CLOUDY    73  72  94 CALM      29.83R

$$

MDZ003>005-291200-
NORTH CENTRAL MARYLAND

CITY           SKY/WX    TMP DP  RH WIND       PRES   REMARKS
FREDERICK*     NOT AVBL
HAGERSTOWN APT CLOUDY    71  68  90 NW6       29.91R FOG

$$

MDZ501>502-291200-
WESTERN MARYLAND

CITY           SKY/WX    TMP DP  RH WIND       PRES   REMARKS
OAKLAND*       FOG       61  61 100 CALM      30.02R VSB<1/4
CUMBERLAND*    CLOUDY    70  70 100 NE3       29.96R

$$

VAZ025>031-291200-
SHENANDOAH VALLEY

CITY           SKY/WX    TMP DP  RH WIND       PRES   REMARKS
WINCHESTER*    CLOUDY    70  68  94 NW8       29.90R
FRONT ROYAL*   CLOUDY    70  68  94 CALM      29.90R
LURAY*         NOT AVBL
NEW MARKET*    FAIR      69  68  96 CALM      29.90R
STAUNTON*      FAIR      67  67 100 CALM      29.94R FOG
WAYNESBORO*    FAIR      69  67  96 MISG      29.93R

$$

WVZ021-048>050-054>055-291200-
EASTERN WEST VIRGINIA PANHANDLE

CITY           SKY/WX    TMP DP  RH WIND       PRES   REMARKS
MARTINSBURG    CLOUDY    71  68  90 N3        29.90R
PETERSBURG*    CLOUDY    70  69  98 CALM      29.93S FOG

$$

VAZ036>039-050-291200-
CENTRAL FOOTHILLS

CITY           SKY/WX    TMP DP  RH WIND       PRES   REMARKS
CHARLOTTESVILL MOCLDY    74  70  87 NW6       29.87R
CULPEPER*      CLOUDY    72  71  96 N5        29.88R
ORANGE*          N/A     73  73 100 CALM      29.89R
GORDONSVILLE*  CLOUDY    73  73  99 MISG      29.86R
WARRENTON*     MOCLDY    73  67  81 NW6       29.87R

$$

VAZ055>057-291200-
NORTH AND CENTRAL PIEDMONT

CITY           SKY/WX    TMP DP  RH WIND       PRES   REMARKS
FREDERICKSBRG* CLOUDY    73  73 100 NW6       29.85R
STAFFORD*      CLOUDY    72  70  92 NW7       29.89R

$$

NCZ024-NYZ072-PAZ021-071-VAZ022-071-291200-
OTHER REGIONAL OBSERVATIONS

CITY           SKY/WX    TMP DP  RH WIND       PRES   REMARKS
NEW YORK CITY  LGT RAIN  71  68  90 VRB6      29.87R FOG
PHILADELPHIA   RAIN      73  71  93 NE12      29.82R FOG
PITTSBURGH     FOG       65  63  93 W6        29.95S VSB<1/4
ROANOKE        FAIR      72  67  84 W8        29.94R
RICHMOND       CLOUDY    74  72  93 NW12      29.84R
RALEIGH        CLEAR     76  70  82 SW8       29.87R

$$

ANZ530>537-291200-
MARINE OBSERVATIONS

STATION/POSITION TIME  TEMP    WIND        PRES
                       AIR SEA DIR/SP/G
                 (UTC) (F)     (DEG/KT/KT) (MB)
THOMAS PT LIGHT  1100   75 84  360/ 16/ 18 1011.2R
BALT KEY BRIDGE  1042   73     340/ 10/ 13 1010.2R
COVE POINT       1042   76     310/  7/  9 1009.7R
LEWISETTA        1042   76 86  270/  4/  7 1008.9R
SOLOMONS ISLAND  1042   77 85  290/  3/  6   N/A
PINEY POINT      1036          340/ 12/ 13   N/A

$$



Close this window


The National Weather Service prepares its forecasts and other services in collaboration with agencies like the US Geological Survey, US Bureau of Reclamation, US Army Corps of Engineers, Natural Resource Conservation Service, National Park Service, ALERT Users Group, Bureau of Indian Affairs, and many state and local emergency managers across the country. For details, please click here.

National Weather Service
(Baltimore/Washington) Sterling Weather Forecast Office
43858 Weather Service Rd.
Sterling, VA 20166
(703) 996-2200
Page last modified: 29-Jul-2016 11:10 AM
Disclaimer
Credits
Glossary
Privacy Policy
About Us
Career Opportunities